,,,PA_Meas_PMT16A,,PR_Meas_QMR101_102,,RH_Meas_QMH101,,SR_Meas_QMS101,,TA_Meas_QMH101,,GenWind,,GenWind,
date,time,status,PA,status,PR,status,RH,status,SR,status,TA,status,DirAvg,status,SpdAvg,
2012-04-26, 00:00:05,VALID,1004.18,VALID,0,VALID,74.3129,VALID,0.0815089,VALID,27.4018,VALID,185,VALID,1.16406,
2012-04-26, 00:01:05,VALID,1004.16,VALID,0,VALID,74.2366,VALID,0.0815089,VALID,27.4018,VALID,196,VALID,0.724219,
2012-04-26, 00:02:05,VALID,1004.11,VALID,0,VALID,73.7179,VALID,0.0815089,VALID,27.4018,VALID,186,VALID,0.846094,
2012-04-26, 00:03:05,VALID,1004.12,VALID,0,VALID,72.1234,VALID,0,VALID,27.4644,VALID,236,VALID,1.82383,
2012-04-26, 00:04:05,VALID,1004.08,VALID,0,VALID,71.2385,VALID,0,VALID,27.5208,VALID,196,VALID,2.07461,
2012-04-26, 00:05:05,VALID,1004.12,VALID,0,VALID,71.9403,VALID,0,VALID,27.6203,VALID,199,VALID,1.51211,
2012-04-26, 00:06:04,VALID,1004.09,VALID,0,VALID,71.5818,VALID,0,VALID,27.5792,VALID,242,VALID,1.56172,
2012-04-26, 00:07:04,VALID,1004.08,VALID,0,VALID,71.9709,VALID,0.0815089,VALID,27.5987,VALID,198,VALID,0.985156,
2012-04-26, 00:08:04,VALID,1004.07,VALID,0,VALID,71.7725,VALID,0.0815089,VALID,27.5987,VALID,190,VALID,0.878516,
2012-04-26, 00:09:04,VALID,1004.05,VALID,0,VALID,71.8259,VALID,0,VALID,27.5987,VALID,166,VALID,1.43906,
2012-04-26, 00:10:04,VALID,1004.04,VALID,0,VALID,71.8793,VALID,0,VALID,27.5987,VALID,228,VALID,1.16641,
2012-04-26, 00:11:04,VALID,1004.04,VALID,0,VALID,71.9327,VALID,0,VALID,27.5987,VALID,192,VALID,1.1793,
2012-04-26, 00:12:04,VALID,1004.06,VALID,0,VALID,71.7344,VALID,0,VALID,27.6182,VALID,192,VALID,0.966016,
2012-04-26, 00:13:04,VALID,1004.03,VALID,0,VALID,72.1082,VALID,0,VALID,27.6182,VALID,221,VALID,0.925781,
2012-04-26, 00:14:04,VALID,1004.04,VALID,0,VALID,71.9632,VALID,0,VALID,27.6182,VALID,178,VALID,1.10391,
2012-04-26, 00:15:04,VALID,1004,VALID,0,VALID,72.7185,VALID,0,VALID,27.5987,VALID,181,VALID,0.480469,
2012-04-26, 00:16:04,VALID,1003.98,VALID,0,VALID,72.5812,VALID,0,VALID,27.5987,VALID,176,VALID,1.35703,
2012-04-26, 00:17:04,VALID,1003.99,VALID,0,VALID,72.4744,VALID,0,VALID,27.5792,VALID,208,VALID,0.645312,
2012-04-26, 00:18:04,VALID,1003.98,VALID,0,VALID,72.3065,VALID,0,VALID,27.5987,VALID,192,VALID,1.13516,
2012-04-26, 00:19:04,VALID,1003.96,VALID,0,VALID,72.2989,VALID,0.0815089,VALID,27.5792,VALID,204,VALID,0.787109,
2012-04-26, 00:20:04,VALID,1003.96,VALID,0,VALID,72.1311,VALID,0,VALID,27.5598,VALID,157,VALID,0.555078,
2012-04-26, 00:21:04,VALID,1003.96,VALID,0,VALID,72.482,VALID,0,VALID,27.5577,VALID,225,VALID,0.628125,
2012-04-26, 00:22:04,VALID,1003.97,VALID,0,VALID,71.6199,VALID,0,VALID,27.5598,VALID,189,VALID,1.43359,
2012-04-26, 00:23:04,VALID,1003.94,VALID,0,VALID,71.5131,VALID,0,VALID,27.6377,VALID,215,VALID,1.62305,
2012-04-26, 00:24:04,VALID,1003.94,VALID,0,VALID,71.6962,VALID,0.0815089,VALID,27.6746,VALID,196,VALID,1.53398,
2012-04-26, 00:25:04,VALID,1003.91,VALID,0,VALID,71.9785,VALID,0,VALID,27.6767,VALID,203,VALID,0.460547,
2012-04-26, 00:26:04,VALID,1003.91,VALID,0,VALID,72.0319,VALID,0,VALID,27.6572,VALID,205,VALID,0.684375,
2012-04-26, 00:27:04,VALID,1003.89,VALID,0,VALID,72.749,VALID,0,VALID,27.6767,VALID,170,VALID,1.275,
2012-04-26, 00:28:04,VALID,1003.88,VALID,0,VALID,73.0923,VALID,0,VALID,27.6767,VALID,172,VALID,1.08398,
2012-04-26, 00:29:04,VALID,1003.86,VALID,0,VALID,72.8177,VALID,0,VALID,27.6572,VALID,191,VALID,2.08203,
2012-04-26, 00:30:04,VALID,1003.83,VALID,0,VALID,72.9702,VALID,0,VALID,27.6767,VALID,211,VALID,0.890625,
2012-04-26, 00:31:04,VALID,1003.8,VALID,0,VALID,73.0236,VALID,0,VALID,27.6377,VALID,210,VALID,1.18633,
2012-04-26, 00:32:04,VALID,1003.8,VALID,0,VALID,73.3441,VALID,0,VALID,27.5987,VALID,192,VALID,0.710156,
2012-04-26, 00:33:04,VALID,1003.78,VALID,0,VALID,74.0001,VALID,0,VALID,27.5598,VALID,167,VALID,0.489453,
2012-04-26, 00:34:04,VALID,1003.76,VALID,0,VALID,74.435,VALID,0,VALID,27.5208,VALID,153,VALID,0.819531,
2012-04-26, 00:35:04,VALID,1003.76,VALID,0,VALID,73.2144,VALID,0,VALID,27.5034,VALID,201,VALID,1.49648,
2012-04-26, 00:36:04,VALID,1003.76,VALID,0,VALID,73.7408,VALID,0,VALID,27.5013,VALID,233,VALID,0.264062,
2012-04-26, 00:37:04,VALID,1003.73,VALID,0,VALID,73.5653,VALID,0,VALID,27.4623,VALID,178,VALID,0.567187,
2012-04-26, 00:38:04,VALID,1003.76,VALID,0,VALID,73.7255,VALID,0,VALID,27.4623,VALID,209,VALID,0.0621094,
2012-04-26, 00:39:04,VALID,1003.72,VALID,0,VALID,74.168,VALID,0,VALID,27.4233,VALID,173,VALID,0.509766,
2012-04-26, 00:40:04,VALID,1003.72,VALID,0,VALID,73.3059,VALID,0,VALID,27.3454,VALID,171,VALID,0.794141,
2012-04-26, 00:41:04,VALID,1003.69,VALID,0,VALID,72.8634,VALID,0,VALID,27.4039,VALID,189,VALID,1.12148,
2012-04-26, 00:42:04,VALID,1003.68,VALID,0,VALID,72.6041,VALID,0,VALID,27.4233,VALID,173,VALID,1.03008,
2012-04-26, 00:43:04,VALID,1003.7,VALID,0,VALID,73.0389,VALID,0,VALID,27.4039,VALID,192,VALID,0.487891,
2012-04-26, 00:44:04,VALID,1003.64,VALID,0,VALID,72.6269,VALID,0,VALID,27.4254,VALID,183,VALID,1.26523,
2012-04-26, 00:45:04,VALID,1003.67,VALID,0,VALID,73.4966,VALID,0,VALID,27.3844,VALID,175,VALID,0.339453,
2012-04-26, 00:46:04,VALID,1003.64,VALID,0,VALID,73.1533,VALID,0,VALID,27.3844,VALID,201,VALID,1.04805,
2012-04-26, 00:47:04,VALID,1003.66,VALID,0,VALID,73.2983,VALID,0,VALID,27.3649,VALID,191,VALID,0.751953,
2012-04-26, 00:48:04,VALID,1003.64,VALID,0,VALID,74.0078,VALID,0,VALID,27.3238,VALID,147,VALID,0.493359,
2012-04-26, 00:49:04,VALID,1003.58,VALID,0,VALID,73.0999,VALID,0,VALID,27.367,VALID,180,VALID,2.4668,
2012-04-26, 00:50:04,VALID,1003.59,VALID,0,VALID,73.6492,VALID,0,VALID,27.4254,VALID,178,VALID,0.940234,
2012-04-26, 00:51:04,VALID,1003.55,VALID,0,VALID,73.4509,VALID,0,VALID,27.367,VALID,199,VALID,0.822656,
2012-04-26, 00:52:04,VALID,1003.55,VALID,0,VALID,73.634,VALID,0,VALID,27.4059,VALID,158,VALID,1.04609,
2012-04-26, 00:53:04,VALID,1003.53,VALID,0,VALID,73.5806,VALID,0,VALID,27.3649,VALID,188,VALID,1.64063,
2012-04-26, 00:54:04,VALID,1003.47,VALID,0,VALID,74.0383,VALID,0,VALID,27.3844,VALID,195,VALID,1.04961,
2012-04-26, 00:55:04,VALID,1003.46,VALID,0,VALID,73.7484,VALID,0,VALID,27.4254,VALID,191,VALID,1.26445,
2012-04-26, 00:56:04,VALID,1003.46,VALID,0,VALID,74.0001,VALID,0,VALID,27.4449,VALID,186,VALID,1.46914,
2012-04-26, 00:57:04,VALID,1003.42,VALID,0,VALID,74.3511,VALID,0,VALID,27.4818,VALID,178,VALID,1.47773,
2012-04-26, 00:58:04,VALID,1003.38,VALID,0,VALID,74.2977,VALID,0,VALID,27.4818,VALID,191,VALID,1.19297,
2012-04-26, 00:59:04,VALID,1003.39,VALID,0,VALID,74.6562,VALID,0,VALID,27.4428,VALID,195,VALID,0.515625,
2012-04-26, 01:00:04,VALID,1003.39,VALID,0,VALID,74.4121,VALID,0.0815089,VALID,27.4233,VALID,174,VALID,0.652344,
2012-04-26, 01:01:04,VALID,1003.36,VALID,0,VALID,74.2366,VALID,0,VALID,27.4213,VALID,191,VALID,1.28203,
2012-04-26, 01:02:04,VALID,1003.38,VALID,0,VALID,74.9156,VALID,0.0815089,VALID,27.4818,VALID,147,VALID,0.626953,
2012-04-26, 01:03:04,VALID,1003.37,VALID,0,VALID,73.5119,VALID,0.0815089,VALID,27.4623,VALID,206,VALID,1.9418,
2012-04-26, 01:04:04,VALID,1003.35,VALID,0,VALID,73.8323,VALID,0,VALID,27.4623,VALID,162,VALID,0.720312,
2012-04-26, 01:05:04,VALID,1003.35,VALID,0,VALID,73.817,VALID,0,VALID,27.4428,VALID,178,VALID,1.1168,
2012-04-26, 01:06:04,VALID,1003.34,VALID,0,VALID,73.428,VALID,0,VALID,27.4623,VALID,195,VALID,1.27422,
2012-04-26, 01:07:04,VALID,1003.31,VALID,0,VALID,73.0542,VALID,0,VALID,27.4623,VALID,196,VALID,1.76445,
2012-04-26, 01:08:04,VALID,1003.31,VALID,0,VALID,72.4896,VALID,0,VALID,27.4818,VALID,223,VALID,1.26875,
2012-04-26, 01:09:04,VALID,1003.28,VALID,0,VALID,72.6498,VALID,0,VALID,27.4623,VALID,194,VALID,0.776953,
2012-04-26, 01:10:04,VALID,1003.31,VALID,0,VALID,73.0923,VALID,0,VALID,27.4839,VALID,173,VALID,0.713672,
2012-04-26, 01:11:04,VALID,1003.3,VALID,0,VALID,73.9696,VALID,0,VALID,27.4428,VALID,184,VALID,0.158203,
2012-04-26, 01:12:04,VALID,1003.25,VALID,0,VALID,73.6111,VALID,0,VALID,27.4039,VALID,235,VALID,0.482422,
2012-04-26, 01:13:04,VALID,1003.25,VALID,0,VALID,73.5195,VALID,0,VALID,27.4059,VALID,189,VALID,0.557031,
2012-04-26, 01:14:04,VALID,1003.22,VALID,0,VALID,74.4197,VALID,0,VALID,27.3454,VALID,168,VALID,0.236719,
2012-04-26, 01:15:04,VALID,1003.23,VALID,0,VALID,73.5119,VALID,0,VALID,27.3064,VALID,158,VALID,0.396094,
2012-04-26, 01:16:04,VALID,1003.23,VALID,0,VALID,73.7636,VALID,0,VALID,27.3064,VALID,182,VALID,1.28203,
2012-04-26, 01:17:04,VALID,1003.24,VALID,0,VALID,73.7636,VALID,0,VALID,27.3259,VALID,215,VALID,1.26523,
2012-04-26, 01:18:04,VALID,1003.23,VALID,0,VALID,73.7942,VALID,0,VALID,27.3649,VALID,221,VALID,0.6875,
2012-04-26, 01:19:04,VALID,1003.22,VALID,0,VALID,73.901,VALID,0,VALID,27.3844,VALID,223,VALID,1.4875,
2012-04-26, 01:20:04,VALID,1003.2,VALID,0,VALID,73.6874,VALID,0,VALID,27.3649,VALID,223,VALID,0.892969,
2012-04-26, 01:21:04,VALID,1003.21,VALID,0,VALID,73.5882,VALID,0,VALID,27.4039,VALID,219,VALID,0.637109,
2012-04-26, 01:22:04,VALID,1003.22,VALID,0,VALID,73.4127,VALID,0,VALID,27.4059,VALID,187,VALID,0.494531,
2012-04-26, 01:23:04,VALID,1003.21,VALID,0,VALID,73.1076,VALID,0,VALID,27.4039,VALID,221,VALID,1.4918,
2012-04-26, 01:24:04,VALID,1003.22,VALID,0,VALID,73.9162,VALID,0,VALID,27.4254,VALID,205,VALID,0.383984,
2012-04-26, 01:25:04,VALID,1003.23,VALID,0,VALID,73.6645,VALID,0,VALID,27.4059,VALID,205,VALID,0.366016,
2012-04-26, 01:26:04,VALID,1003.22,VALID,0,VALID,73.8399,VALID,0,VALID,27.3433,VALID,222,VALID,0.564062,
2012-04-26, 01:27:04,VALID,1003.23,VALID,0,VALID,73.489,VALID,0,VALID,27.3454,VALID,257,VALID,0.297266,
2012-04-26, 01:28:04,VALID,1003.23,VALID,0,VALID,73.7865,VALID,0,VALID,27.3454,VALID,219,VALID,0.762891,
2012-04-26, 01:29:04,VALID,1003.17,VALID,0,VALID,72.8253,VALID,0,VALID,27.3454,VALID,232,VALID,1.28086,
2012-04-26, 01:30:04,VALID,1003.2,VALID,0,VALID,73.283,VALID,0.0815089,VALID,27.3823,VALID,201,VALID,0.819531,
2012-04-26, 01:31:04,VALID,1003.2,VALID,0,VALID,73.6034,VALID,0.0815089,VALID,27.4039,VALID,289,VALID,0.452734,
2012-04-26, 01:32:04,VALID,1003.19,VALID,0,VALID,72.8558,VALID,0.0815089,VALID,27.3844,VALID,223,VALID,0.684375,
2012-04-26, 01:33:04,VALID,1003.16,VALID,0,VALID,73.8628,VALID,0,VALID,27.3454,VALID,235,VALID,0.548437,
2012-04-26, 01:34:04,VALID,1003.17,VALID,0,VALID,74.2748,VALID,0,VALID,27.3064,VALID,218,VALID,0.35,
2012-04-26, 01:35:04,VALID,1003.16,VALID,0,VALID,74.6486,VALID,0.0815089,VALID,27.248,VALID,303,VALID,0.310547,
2012-04-26, 01:36:04,VALID,1003.16,VALID,0,VALID,74.5113,VALID,0.0815089,VALID,27.1895,VALID,302,VALID,0.220313,
2012-04-26, 01:37:04,VALID,1003.16,VALID,0,VALID,74.8088,VALID,0,VALID,27.1506,VALID,280,VALID,0.248828,
2012-04-26, 01:38:04,VALID,1003.11,VALID,0,VALID,74.9385,VALID,0,VALID,27.1311,VALID,259,VALID,0.611328,
2012-04-26, 01:39:04,VALID,1003.14,VALID,0,VALID,75.0453,VALID,0,VALID,27.1547,VALID,231,VALID,0.546875,
2012-04-26, 01:40:04,VALID,1003.14,VALID,0,VALID,75.1445,VALID,0,VALID,27.1331,VALID,242,VALID,0.485547,
2012-04-26, 01:41:04,VALID,1003.14,VALID,0,VALID,75.4267,VALID,0,VALID,27.1136,VALID,328,VALID,0.420703,
2012-04-26, 01:42:04,VALID,1003.14,VALID,0,VALID,75.3962,VALID,0,VALID,27.0942,VALID,251,VALID,0.566797,
2012-04-26, 01:43:04,VALID,1003.13,VALID,0,VALID,75.3199,VALID,0,VALID,27.0942,VALID,201,VALID,1.1832,
2012-04-26, 01:44:04,VALID,1003.15,VALID,0,VALID,75.9531,VALID,0,VALID,27.0747,VALID,239,VALID,0.274609,
2012-04-26, 01:45:04,VALID,1003.12,VALID,0,VALID,75.5641,VALID,0,VALID,27.0552,VALID,220,VALID,0.209766,
2012-04-26, 01:46:04,VALID,1003.12,VALID,0,VALID,75.6785,VALID,0,VALID,27.0357,VALID,231,VALID,0.0488281,
2012-04-26, 01:47:04,VALID,1003.09,VALID,0,VALID,75.8234,VALID,0,VALID,27.0357,VALID,231,VALID,0.190625,
2012-04-26, 01:48:04,VALID,1003.07,VALID,0,VALID,75.8997,VALID,0,VALID,26.9967,VALID,231,VALID,0.113672,
2012-04-26, 01:49:04,VALID,1003.11,VALID,0,VALID,76.5024,VALID,0,VALID,26.9772,VALID,231,VALID,0.139062,
2012-04-26, 01:50:04,VALID,1003.12,VALID,0,VALID,76.8839,VALID,0,VALID,26.9383,VALID,231,VALID,0.242969,
2012-04-26, 01:51:04,VALID,1003.08,VALID,0,VALID,76.9754,VALID,0,VALID,26.8973,VALID,296,VALID,0.267578,
2012-04-26, 01:52:04,VALID,1003.08,VALID,0,VALID,76.8457,VALID,0,VALID,26.9188,VALID,297,VALID,0.375781,
2012-04-26, 01:53:04,VALID,1003.08,VALID,0,VALID,76.7465,VALID,0,VALID,26.9403,VALID,308,VALID,0.653516,
2012-04-26, 01:54:04,VALID,1003.08,VALID,0,VALID,76.7771,VALID,0.0815089,VALID,26.9167,VALID,337,VALID,0.726953,
2012-04-26, 01:55:04,VALID,1003.07,VALID,0,VALID,76.6779,VALID,0.0815089,VALID,26.9362,VALID,301,VALID,0.217187,
2012-04-26, 01:56:04,VALID,1003.07,VALID,0,VALID,76.7847,VALID,0.0815089,VALID,26.9362,VALID,294,VALID,0.927734,
2012-04-26, 01:57:04,VALID,1003.08,VALID,0,VALID,76.716,VALID,0.0815089,VALID,26.9752,VALID,298,VALID,0.707422,
2012-04-26, 01:58:04,VALID,1003.06,VALID,0,VALID,76.6474,VALID,0.0815089,VALID,26.9926,VALID,291,VALID,0.226172,
2012-04-26, 01:59:04,VALID,1003.06,VALID,0,VALID,76.8076,VALID,0,VALID,26.9947,VALID,291,VALID,0.25,
2012-04-26, 02:00:04,VALID,1003.03,VALID,0,VALID,76.9678,VALID,0,VALID,26.9732,VALID,251,VALID,0.532812,
2012-04-26, 02:01:04,VALID,1003.06,VALID,0,VALID,77.2806,VALID,0.0815089,VALID,26.9752,VALID,271,VALID,0.355078,
2012-04-26, 02:02:04,VALID,1003.05,VALID,0,VALID,77.6544,VALID,0,VALID,26.9147,VALID,272,VALID,0.324219,
2012-04-26, 02:03:04,VALID,1003.08,VALID,0,VALID,77.9214,VALID,0,VALID,26.8583,VALID,294,VALID,0.554688,
2012-04-26, 02:04:04,VALID,1003.04,VALID,0,VALID,78.1579,VALID,0.0815089,VALID,26.8193,VALID,322,VALID,0.456641,
2012-04-26, 02:05:04,VALID,1003.04,VALID,0,VALID,78.6538,VALID,0,VALID,26.7783,VALID,323,VALID,0,
2012-04-26, 02:06:04,VALID,1003.04,VALID,0,VALID,78.7529,VALID,0.0815089,VALID,26.7609,VALID,320,VALID,0.241406,
2012-04-26, 02:07:04,VALID,1003.04,VALID,0,VALID,79.47,VALID,0,VALID,26.7219,VALID,320,VALID,0.269531,
2012-04-26, 02:08:04,VALID,1003.01,VALID,0,VALID,79.1649,VALID,0,VALID,26.6225,VALID,333,VALID,0.563672,
2012-04-26, 02:09:04,VALID,1003,VALID,0,VALID,79.6837,VALID,0.0815089,VALID,26.6245,VALID,333,VALID,0.379687,
2012-04-26, 02:10:04,VALID,1003,VALID,0,VALID,80.4084,VALID,0.0815089,VALID,26.5466,VALID,333,VALID,0.296094,
2012-04-26, 02:11:04,VALID,1003,VALID,0,VALID,80.828,VALID,0,VALID,26.4492,VALID,330,VALID,0.595312,
2012-04-26, 02:12:04,VALID,1003.01,VALID,0,VALID,80.8432,VALID,0.0815089,VALID,26.3713,VALID,332,VALID,0.409375,
2012-04-26, 02:13:04,VALID,1002.99,VALID,0,VALID,81.2323,VALID,0.0815089,VALID,26.3128,VALID,332,VALID,0.4625,
2012-04-26, 02:14:04,VALID,1003,VALID,0,VALID,81.6748,VALID,0.0815089,VALID,26.2544,VALID,332,VALID,0.591406,
2012-04-26, 02:15:04,VALID,1003,VALID,0,VALID,81.9647,VALID,0.0815089,VALID,26.2154,VALID,325,VALID,0.314844,
2012-04-26, 02:16:04,VALID,1003.01,VALID,0,VALID,82.041,VALID,0.0815089,VALID,26.155,VALID,303,VALID,0.439063,
2012-04-26, 02:17:04,VALID,1003,VALID,0,VALID,82.5292,VALID,0.0815089,VALID,26.157,VALID,320,VALID,0.346484,
2012-04-26, 02:18:04,VALID,1003.01,VALID,0,VALID,82.7276,VALID,0.0815089,VALID,26.0985,VALID,333,VALID,0.374219,
2012-04-26, 02:19:04,VALID,1003,VALID,0,VALID,82.8878,VALID,0,VALID,26.0596,VALID,333,VALID,0.125391,
2012-04-26, 02:20:04,VALID,1002.99,VALID,0,VALID,83.3837,VALID,0,VALID,26.0206,VALID,333,VALID,0.267969,
2012-04-26, 02:21:04,VALID,1002.95,VALID,0,VALID,83.6049,VALID,0.0815089,VALID,25.9797,VALID,333,VALID,0.314844,
2012-04-26, 02:22:04,VALID,1002.97,VALID,0,VALID,83.8719,VALID,0.0815089,VALID,25.9602,VALID,333,VALID,0.206641,
2012-04-26, 02:23:04,VALID,1002.93,VALID,0,VALID,84.2228,VALID,0.0815089,VALID,25.9018,VALID,333,VALID,0.444531,
2012-04-26, 02:24:04,VALID,1002.95,VALID,0,VALID,84.5738,VALID,0.0815089,VALID,25.8843,VALID,333,VALID,0.478125,
2012-04-26, 02:25:04,VALID,1002.96,VALID,0,VALID,84.7035,VALID,0,VALID,25.8044,VALID,333,VALID,0.56875,
2012-04-26, 02:26:04,VALID,1002.95,VALID,0,VALID,85.2375,VALID,0,VALID,25.8064,VALID,333,VALID,0.527344,
2012-04-26, 02:27:04,VALID,1002.9,VALID,0,VALID,85.329,VALID,0,VALID,25.748,VALID,334,VALID,0.569922,
2012-04-26, 02:28:04,VALID,1002.92,VALID,0,VALID,85.4435,VALID,0,VALID,25.6876,VALID,334,VALID,0.521875,
2012-04-26, 02:29:04,VALID,1002.89,VALID,0,VALID,85.3519,VALID,0,VALID,25.67,VALID,334,VALID,0,
2012-04-26, 02:30:04,VALID,1002.88,VALID,0,VALID,85.6647,VALID,0,VALID,25.67,VALID,335,VALID,0.345313,
2012-04-26, 02:31:04,VALID,1002.89,VALID,0,VALID,86.0156,VALID,0,VALID,25.67,VALID,336,VALID,0.475391,
2012-04-26, 02:32:04,VALID,1002.89,VALID,0,VALID,86.1301,VALID,0,VALID,25.6311,VALID,336,VALID,0.000390625,
2012-04-26, 02:33:04,VALID,1002.88,VALID,0,VALID,86.1529,VALID,0,VALID,25.6311,VALID,336,VALID,0,
2012-04-26, 02:34:04,VALID,1002.87,VALID,0,VALID,86.5191,VALID,0.0815089,VALID,25.6116,VALID,336,VALID,0,
2012-04-26, 02:35:04,VALID,1002.86,VALID,0,VALID,85.1078,VALID,0,VALID,25.5941,VALID,292,VALID,1.44258,
2012-04-26, 02:36:04,VALID,1002.87,VALID,0,VALID,84.589,VALID,0.0815089,VALID,25.6486,VALID,286,VALID,0.440625,
2012-04-26, 02:37:04,VALID,1002.87,VALID,0,VALID,84.0855,VALID,0.0815089,VALID,25.7889,VALID,333,VALID,0.671484,
2012-04-26, 02:38:04,VALID,1002.89,VALID,0,VALID,83.6354,VALID,0.0815089,VALID,25.8434,VALID,310,VALID,1.09492,
2012-04-26, 02:39:04,VALID,1002.88,VALID,0,VALID,83.048,VALID,0,VALID,26.0596,VALID,268,VALID,0.997656,
2012-04-26, 02:40:04,VALID,1002.9,VALID,0,VALID,81.9037,VALID,0,VALID,26.2524,VALID,288,VALID,0.689062,
2012-04-26, 02:41:04,VALID,1002.88,VALID,0,VALID,81.3467,VALID,0,VALID,26.4102,VALID,300,VALID,0.580078,
2012-04-26, 02:42:04,VALID,1002.88,VALID,0,VALID,81.3086,VALID,0,VALID,26.4881,VALID,303,VALID,0.644141,
2012-04-26, 02:43:04,VALID,1002.86,VALID,0,VALID,81.3925,VALID,0.0815089,VALID,26.5271,VALID,289,VALID,0.84375,
2012-04-26, 02:44:04,VALID,1002.85,VALID,0,VALID,81.2094,VALID,0,VALID,26.5466,VALID,307,VALID,0.299609,
2012-04-26, 02:45:04,VALID,1002.82,VALID,0,VALID,81.9952,VALID,0,VALID,26.5271,VALID,339,VALID,0.45625,
2012-04-26, 02:46:04,VALID,1002.84,VALID,0,VALID,82.0486,VALID,0.0815089,VALID,26.4472,VALID,298,VALID,0.876953,
2012-04-26, 02:47:04,VALID,1002.83,VALID,0,VALID,82.0333,VALID,0.0815089,VALID,26.4687,VALID,286,VALID,0.808203,
2012-04-26, 02:48:04,VALID,1002.8,VALID,0,VALID,81.8197,VALID,0.0815089,VALID,26.4861,VALID,330,VALID,0.525781,
2012-04-26, 02:49:04,VALID,1002.77,VALID,0,VALID,81.6443,VALID,0.0815089,VALID,26.4861,VALID,348,VALID,0.348047,
2012-04-26, 02:50:04,VALID,1002.78,VALID,0,VALID,82.1173,VALID,0.0815089,VALID,26.4861,VALID,348,VALID,0.412109,
2012-04-26, 02:51:04,VALID,1002.75,VALID,0,VALID,82.1554,VALID,0.0815089,VALID,26.4277,VALID,348,VALID,0.360938,
2012-04-26, 02:52:04,VALID,1002.73,VALID,0,VALID,82.2698,VALID,0,VALID,26.4297,VALID,348,VALID,0.183984,
2012-04-26, 02:53:04,VALID,1002.74,VALID,0,VALID,82.3995,VALID,0,VALID,26.4102,VALID,349,VALID,0.459766,
2012-04-26, 02:54:04,VALID,1002.72,VALID,0,VALID,82.5597,VALID,0.0815089,VALID,26.3713,VALID,345,VALID,0.243359,
2012-04-26, 02:55:04,VALID,1002.69,VALID,0,VALID,82.6971,VALID,0,VALID,26.3108,VALID,348,VALID,0.705078,
2012-04-26, 02:56:04,VALID,1002.71,VALID,0,VALID,82.903,VALID,0,VALID,26.3323,VALID,352,VALID,0.354688,
2012-04-26, 02:57:04,VALID,1002.7,VALID,0,VALID,83.1701,VALID,0.0815089,VALID,26.2524,VALID,352,VALID,0.090625,
2012-04-26, 02:58:04,VALID,1002.7,VALID,0,VALID,83.3989,VALID,0.0815089,VALID,26.2739,VALID,353,VALID,0.583203,
2012-04-26, 02:59:04,VALID,1002.71,VALID,0,VALID,83.3913,VALID,0.0815089,VALID,26.2134,VALID,353,VALID,0.0804688,
2012-04-26, 03:00:04,VALID,1002.74,VALID,0,VALID,83.5744,VALID,0,VALID,26.1959,VALID,353,VALID,0.213672,
2012-04-26, 03:01:04,VALID,1002.71,VALID,0,VALID,83.8109,VALID,0.0815089,VALID,26.155,VALID,353,VALID,0,
2012-04-26, 03:02:04,VALID,1002.71,VALID,0,VALID,84.0092,VALID,0.0815089,VALID,26.157,VALID,353,VALID,0.0246094,
2012-04-26, 03:03:04,VALID,1002.73,VALID,0,VALID,84.1618,VALID,0,VALID,26.1375,VALID,353,VALID,0.009375,
2012-04-26, 03:04:04,VALID,1002.73,VALID,0,VALID,84.1923,VALID,0.0815089,VALID,26.0985,VALID,283,VALID,0.411328,
2012-04-26, 03:05:04,VALID,1002.72,VALID,0,VALID,84.2534,VALID,0,VALID,26.118,VALID,336,VALID,0.583594,
2012-04-26, 03:06:04,VALID,1002.71,VALID,0,VALID,84.4364,VALID,0.0815089,VALID,26.0966,VALID,340,VALID,0.121484,
2012-04-26, 03:07:04,VALID,1002.73,VALID,0,VALID,84.7645,VALID,0,VALID,26.0791,VALID,348,VALID,0.337891,
2012-04-26, 03:08:04,VALID,1002.71,VALID,0,VALID,84.9857,VALID,0.0815089,VALID,26.0576,VALID,352,VALID,0.226563,
2012-04-26, 03:09:04,VALID,1002.72,VALID,0,VALID,85.207,VALID,0.0815089,VALID,26.0576,VALID,345,VALID,0.566406,
2012-04-26, 03:10:04,VALID,1002.73,VALID,0,VALID,85.3672,VALID,0,VALID,26.0596,VALID,318,VALID,0.298438,
2012-04-26, 03:11:04,VALID,1002.7,VALID,0,VALID,85.4206,VALID,0,VALID,26.0187,VALID,308,VALID,0.169141,
2012-04-26, 03:12:04,VALID,1002.71,VALID,0,VALID,85.474,VALID,0.0815089,VALID,25.9992,VALID,308,VALID,0.0234375,
2012-04-26, 03:13:04,VALID,1002.71,VALID,0,VALID,85.6571,VALID,0.0815089,VALID,25.9777,VALID,308,VALID,0.0425781,
2012-04-26, 03:14:04,VALID,1002.72,VALID,0,VALID,85.8096,VALID,0.0815089,VALID,26.0012,VALID,360,VALID,0.519141,
2012-04-26, 03:15:04,VALID,1002.72,VALID,0,VALID,85.9165,VALID,0,VALID,25.9817,VALID,359,VALID,0.260547,
2012-04-26, 03:16:04,VALID,1002.7,VALID,0,VALID,85.9546,VALID,0,VALID,25.9817,VALID,360,VALID,0.567578,
2012-04-26, 03:17:04,VALID,1002.73,VALID,0,VALID,86.0004,VALID,0,VALID,25.9817,VALID,279,VALID,0.7125,
2012-04-26, 03:18:04,VALID,1002.7,VALID,0,VALID,86.0919,VALID,0.0815089,VALID,25.9602,VALID,333,VALID,0.735547,
2012-04-26, 03:19:04,VALID,1002.7,VALID,0,VALID,86.1301,VALID,0,VALID,25.9817,VALID,283,VALID,0.307031,
2012-04-26, 03:20:04,VALID,1002.71,VALID,0,VALID,86.1682,VALID,0.0815089,VALID,25.9602,VALID,283,VALID,0.130859,
2012-04-26, 03:21:04,VALID,1002.71,VALID,0,VALID,86.3055,VALID,0.0815089,VALID,25.9408,VALID,283,VALID,0,
2012-04-26, 03:22:04,VALID,1002.72,VALID,0,VALID,86.4428,VALID,0.0815089,VALID,25.9427,VALID,296,VALID,0.103125,
2012-04-26, 03:23:04,VALID,1002.71,VALID,0,VALID,86.5725,VALID,0.0815089,VALID,25.9018,VALID,324,VALID,0.604297,
2012-04-26, 03:24:04,VALID,1002.74,VALID,0,VALID,86.6336,VALID,0,VALID,25.9252,VALID,346,VALID,0.425,
2012-04-26, 03:25:04,VALID,1002.75,VALID,0,VALID,86.8243,VALID,0,VALID,25.9057,VALID,348,VALID,0.161719,
2012-04-26, 03:26:04,VALID,1002.79,VALID,0,VALID,86.8624,VALID,0,VALID,25.9038,VALID,334,VALID,0.301562,
2012-04-26, 03:27:04,VALID,1002.79,VALID,0,VALID,86.9235,VALID,0,VALID,25.9252,VALID,355,VALID,0.711328,
2012-04-26, 03:28:04,VALID,1002.79,VALID,0,VALID,86.9235,VALID,0,VALID,25.9038,VALID,353,VALID,1.10781,
2012-04-26, 03:29:04,VALID,1002.78,VALID,0,VALID,86.8853,VALID,0,VALID,25.9427,VALID,352,VALID,0.857422,
2012-04-26, 03:30:04,VALID,1002.78,VALID,0,VALID,86.8014,VALID,0,VALID,25.9427,VALID,351,VALID,0.772656,
2012-04-26, 03:31:04,VALID,1002.77,VALID,0,VALID,86.8014,VALID,0,VALID,25.9642,VALID,353,VALID,0.14375,
2012-04-26, 03:32:04,VALID,1002.77,VALID,0,VALID,86.8548,VALID,0,VALID,25.9642,VALID,345,VALID,0.708594,
2012-04-26, 03:33:04,VALID,1002.78,VALID,0,VALID,86.9082,VALID,0,VALID,25.9622,VALID,345,VALID,0.0421875,
2012-04-26, 03:34:04,VALID,1002.79,VALID,0,VALID,86.9464,VALID,0,VALID,25.9642,VALID,345,VALID,0,
2012-04-26, 03:35:04,VALID,1002.78,VALID,0,VALID,87.0532,VALID,0,VALID,25.9038,VALID,345,VALID,0,
2012-04-26, 03:36:04,VALID,1002.77,VALID,0,VALID,87.1447,VALID,0,VALID,25.9057,VALID,343,VALID,0.254687,
2012-04-26, 03:37:04,VALID,1002.75,VALID,0,VALID,87.2744,VALID,0,VALID,25.9057,VALID,294,VALID,0.102344,
2012-04-26, 03:38:04,VALID,1002.77,VALID,0,VALID,87.3202,VALID,0,VALID,25.9057,VALID,343,VALID,0.717969,
2012-04-26, 03:39:04,VALID,1002.73,VALID,0,VALID,87.3507,VALID,0,VALID,25.8843,VALID,351,VALID,1.18164,
2012-04-26, 03:40:04,VALID,1002.73,VALID,0,VALID,87.4193,VALID,0,VALID,25.9057,VALID,348,VALID,1.15352,